Chignik, AK

11:41 AM AKST on December 07, 2016 (GMT -0900)
Chignik

Weather History for PAJC - April, 2014

Change the Weather History Date:

Saturday, April 5, 2014

  Actual Average Record
Temperature  
Mean Temperature 46 °F -  
Max Temperature 48 °F 36 °F 48 °F (2014)
Min Temperature 46 °F 28 °F 17 °F (2012)
Degree Days  
Heating Degree Days 19    
Moisture  
Dew Point 36 °F    
Average Humidity 66    
Maximum Humidity 71    
Minimum Humidity 62    
Precipitation  
Precipitation 0.03 in - - ()
Sea Level Pressure  
Sea Level Pressure 29.38 in    
Wind  
Wind Speed 2 mph (NNW)    
Max Wind Speed 9 mph    
Max Gust Speed -    
Visibility 10 miles    
Events      
Averages and records for this station are not official NWS values.
T = Trace of Precipitation, MM = Missing Value Source: NWS Daily Summary

Daily Weather History Graph

Daily Weather History Graph

Search for Another Location

Airport or City:

Trip Planner

Search our weather history database for the weather conditions in past years. The results will help you decide how hot, cold, wet, or windy it might be!

Date:

Astronomy

Apr. 05, 2014 Rise Set
Actual Time 7:52 AM AKDT 9:21 PM AKDT
Civil Twilight 7:13 AM AKDT 10:00 PM AKDT
Nautical Twilight 6:25 AM AKDT 10:48 PM AKDT
Astronomical Twilight 5:31 AM AKDT 11:43 PM AKDT
Moon 11:30 AM AKDT (4/5) 3:19 AM AKDT (4/5)
Length of Visible Light 14h 46m
Length of Day
13h 28m
Waxing Crescent, 36% of the Moon is Illuminated
Apr 5
Waxing Crescent
Apr 7
First Quarter
Apr 14
Full
Apr 21
Last Quarter
Apr 28
New

Hourly Weather History & Observations

Time (AKDT) Temp. Windchill Dew Point Humidity Pressure Visibility Wind Dir Wind Speed Gust Speed Precip Events Conditions
12:16 AM - - - N/A% 29.31 in 10.0 mi SSE 3.5 mph - N/A   Clear
12:36 AM - - - N/A% 29.31 in 10.0 mi SSE 3.5 mph - N/A   Clear
12:56 AM - - - N/A% 29.31 in 10.0 mi Calm Calm - N/A   Clear
1:16 AM - - - N/A% 29.31 in 10.0 mi Calm Calm - N/A   Clear
1:36 AM - - - N/A% 29.32 in 10.0 mi Calm Calm - N/A   Clear
1:56 AM - - - N/A% 29.32 in 10.0 mi SSE 3.5 mph - N/A   Partly Cloudy
2:16 AM - - - N/A% 29.32 in 10.0 mi Calm Calm - N/A   Partly Cloudy
2:36 AM - - - N/A% 29.33 in 10.0 mi Calm Calm - N/A   Clear
2:56 AM - - - N/A% 29.33 in 10.0 mi Calm Calm - N/A   Clear
3:16 AM - - - N/A% 29.33 in 10.0 mi South 3.5 mph - N/A   Scattered Clouds
3:36 AM - - - N/A% 29.33 in 10.0 mi Calm Calm - N/A   Overcast
3:56 AM - - - N/A% 29.33 in 10.0 mi Calm Calm - N/A   Overcast
4:16 AM - - - N/A% 29.33 in 10.0 mi Calm Calm - N/A   Mostly Cloudy
4:36 AM - - - N/A% 29.33 in 10.0 mi Calm Calm - N/A   Partly Cloudy
4:56 AM - - - N/A% 29.34 in 10.0 mi SSE 3.5 mph - N/A   Clear
5:16 AM - - - N/A% 29.34 in 10.0 mi Calm Calm - N/A   Clear
5:36 AM - - - N/A% 29.34 in 10.0 mi Calm Calm - N/A   Scattered Clouds
5:56 AM - - - N/A% 29.34 in 10.0 mi South 3.5 mph - N/A   Partly Cloudy
6:16 AM - - - N/A% 29.34 in 10.0 mi Calm Calm - N/A   Clear
6:36 AM - - - N/A% 29.34 in 10.0 mi South 3.5 mph - N/A   Clear
6:56 AM - - - N/A% 29.35 in 10.0 mi Calm Calm - N/A   Clear
7:16 AM - - - N/A% 29.35 in 10.0 mi SE 4.6 mph - N/A   Mostly Cloudy
7:36 AM - - - N/A% 29.35 in 10.0 mi Calm Calm - N/A   Overcast
7:56 AM - - - N/A% 29.35 in 10.0 mi Calm Calm - N/A   Overcast
8:16 AM - - - N/A% 29.35 in 10.0 mi Calm Calm - N/A   Scattered Clouds
8:36 AM - - - N/A% 29.35 in 10.0 mi SSE 3.5 mph - N/A   Clear
8:56 AM - - - N/A% 29.36 in 10.0 mi Calm Calm - N/A   Mostly Cloudy
9:16 AM - - - N/A% 29.36 in 10.0 mi South 3.5 mph - N/A   Mostly Cloudy
9:36 AM - - - N/A% 29.37 in 10.0 mi Calm Calm - N/A   Mostly Cloudy
9:56 AM - - - N/A% 29.37 in 10.0 mi Calm Calm - N/A   Mostly Cloudy
10:16 AM - - - N/A% 29.37 in 10.0 mi Calm Calm - N/A   Partly Cloudy
10:36 AM - - - N/A% 29.37 in 10.0 mi Calm Calm - N/A   Clear
10:56 AM - - - N/A% 29.38 in 10.0 mi Calm Calm - N/A   Clear
11:16 AM - - - N/A% 29.38 in 10.0 mi Calm Calm - N/A   Clear
11:36 AM - - - N/A% 29.38 in 10.0 mi North 3.5 mph - N/A   Clear
11:56 AM - - - N/A% 29.38 in 10.0 mi North 4.6 mph - N/A   Clear
12:16 PM - - - N/A% 29.38 in 10.0 mi North 3.5 mph - N/A   Clear
12:36 PM - - - N/A% 29.39 in 10.0 mi ENE 3.5 mph - N/A   Mostly Cloudy
12:56 PM - - - N/A% 29.39 in 10.0 mi North 4.6 mph - N/A   Overcast
1:16 PM - - - N/A% 29.39 in 10.0 mi Calm Calm - N/A   Overcast
1:36 PM - - - N/A% 29.39 in 10.0 mi Calm Calm - N/A   Mostly Cloudy
1:56 PM - - - N/A% 29.39 in 10.0 mi Calm Calm - N/A   Mostly Cloudy
2:16 PM 46.4 °F 43.5 °F 35.6 °F 66% 29.39 in 10.0 mi NNE 5.8 mph - N/A   Mostly Cloudy
2:36 PM 46.4 °F 44.3 °F 37.4 °F 71% 29.39 in 10.0 mi North 4.6 mph - N/A   Mostly Cloudy
2:56 PM - - - N/A% 29.39 in 10.0 mi North 5.8 mph - N/A   Mostly Cloudy
3:16 PM - - - N/A% 29.39 in 10.0 mi NNE 4.6 mph - N/A   Mostly Cloudy
3:36 PM 46.4 °F 44.3 °F 35.6 °F 66% 29.39 in 10.0 mi North 4.6 mph - N/A   Mostly Cloudy
3:56 PM - - - N/A% 29.39 in 10.0 mi NNW 3.5 mph - N/A   Partly Cloudy
4:16 PM 48.2 °F - 35.6 °F 62% 29.39 in 10.0 mi NNW 3.5 mph - N/A   Partly Cloudy
4:36 PM - - - N/A% 29.38 in 10.0 mi North 4.6 mph - N/A   Clear
4:56 PM - - - N/A% 29.38 in 10.0 mi NE 6.9 mph - N/A   Clear
5:16 PM - - - N/A% 29.38 in 10.0 mi North 5.8 mph - N/A   Clear
5:36 PM - - - N/A% 29.39 in 10.0 mi NE 6.9 mph - N/A   Partly Cloudy
5:56 PM - - - N/A% 29.39 in 10.0 mi NNE 9.2 mph - N/A   Mostly Cloudy
6:16 PM - - - N/A% 29.40 in 10.0 mi NNE 5.8 mph - N/A   Overcast
6:36 PM - - - N/A% 29.40 in 10.0 mi NNE 4.6 mph - N/A   Overcast
6:56 PM - - - N/A% 29.40 in 10.0 mi NNE 4.6 mph - N/A   Overcast
7:16 PM - - - N/A% 29.41 in 10.0 mi North 3.5 mph - N/A   Overcast
7:36 PM - - - N/A% 29.41 in 10.0 mi West 6.9 mph - N/A   Overcast
7:56 PM - - - N/A% 29.42 in 10.0 mi WSW 9.2 mph - N/A   Overcast
8:16 PM - - - N/A% 29.43 in 10.0 mi SW 8.1 mph - N/A   Overcast
8:36 PM - - - N/A% 29.43 in 10.0 mi SW 5.8 mph - N/A   Overcast
8:56 PM - - - N/A% 29.44 in 10.0 mi WSW 5.8 mph - N/A   Overcast
9:16 PM - - - N/A% 29.44 in 9.0 mi Calm Calm - 0.01 in   Overcast
9:36 PM - - - N/A% 29.45 in 7.0 mi Calm Calm - 0.02 in   Overcast
9:56 PM - - - N/A% 29.45 in 10.0 mi Calm Calm - 0.03 in   Overcast
10:16 PM - - - N/A% 29.46 in 10.0 mi West 5.8 mph - N/A   Overcast
10:36 PM - - - N/A% 29.46 in 10.0 mi West 6.9 mph - N/A   Overcast
10:56 PM - - - N/A% 29.46 in 10.0 mi West 5.8 mph - N/A   Mostly Cloudy
11:16 PM - - - N/A% 29.47 in 10.0 mi West 6.9 mph - N/A   Scattered Clouds
11:36 PM - - - N/A% 29.47 in 10.0 mi West 6.9 mph - N/A   Clear
11:56 PM - - - N/A% 29.47 in 10.0 mi West 5.8 mph - N/A   Clear